Accueil
METAR-TAF:

METAR-TAF

Aéroports :

Sarzana, Italie

Luni

latitude: 44-05N, longitude: 009-59E, altitude: 9 m

Observation

Le bulletin a été fait il y a 13 heures et 37 minutes, à 13:55 UTC
Vent 3 kt de sud
Température 20°C
Humidité 60%
Pression 1019 hPa
Visibilité 10 km ou plus
pas de nuages en-dessous de 1500 mètres et pas de cumulonimbus.

METAR: LIQW 181355Z 17003KT CAVOK 20/12 Q1019 RMK SKC VIS MIN 9999 WIND THR18 17004KT BLU

Heure: 05:32 (03:32 UTC)


TAF: absent

Observations et prévisions météorologiques de plus de 4000 aéroports (messages METAR et TAF).

Les stations disponibles sont représentées par des disques jaunes et rouges sur la carte.

Passer la souris dessus pour voir le nom de la station.

Cliquer dessus pour voir les observations et prévisions météorologiques.

Pour changer de carte: cliquez sur les boutons verts avec une croix noire pour zoomer, sur le bouton vert avec un tiret pour effectuer un zoom arrière, ou sur les flèches vertes pour les cartes adjacentes.


METAR-TAF: